Location: Austin
(30.3000°N, 97.7500°W)
Time: 23:37:36
(UTC-05:00)

Cosmos 1328 - Pass Details

Date: 08 April 2026
Orbit: 454 x 469 km, 82.5° (Epoch: 20 April)

Event Time Altitude Azimuth Distance (km) Brightness Sun altitude
Rises 21:16:35 0° 354° (N) 2,476 7.5 -18.0°
Reaches altitude 10° 21:18:39 10° 354° (N) 1,601 6.5 -18.4°
Maximum altitude 21:22:09 89° 69° (ENE) 463 3.3 -19.1°
Enters shadow 21:23:11 44° 174° (S) 647 3.9 -19.3°
